This is the latest recevied weather packets stored in our database for station/object dl9mfl-6. If no packets are shown the sender has not sent any weather packets the latest 1 day(s).
| Time | Temp. | Humidity | Pressure | Rain* | Wind** | Luminosity | Snow |
|---|---|---|---|---|---|---|---|
| 1778083621 | 11.67° C | 83% | 1005.2 hPa | 0.25 mm | - | - | - |
| 1778083561 | 11.67° C | 84% | 1005 hPa | 0.25 mm | - | - | - |
| 1778083503 | 11.67° C | 84% | 1005 hPa | 0.25 mm | - | - | - |
| 1778083381 | 11.67° C | 84% | 1004.9 hPa | 0.25 mm | - | - | - |
| 1778083280 | 11.67° C | 85% | 1004.9 hPa | 0.25 mm | - | - | - |
| 1778083272 | 11.11° C | 84% | 1004.9 hPa | 0.25 mm | - | - | - |
| 1778082961 | 11.11° C | 84% | 1004.7 hPa | 0.25 mm | - | - | - |
| 1778082901 | 11.11° C | 83% | 1004.9 hPa | 0.25 mm | - | - | - |
| 1778082846 | 11.67° C | 84% | 1005 hPa | 0.25 mm | - | - | - |
| 1778082672 | 11.67° C | 82% | 1004.6 hPa | 0.25 mm | - | - | - |
| 1778082416 | 11.67° C | 81% | 1004.5 hPa | 0.25 mm | - | - | - |
| 1778082357 | 11.67° C | 81% | 1004.5 hPa | 0.25 mm | - | - | - |
| 1778082298 | 11.67° C | 80% | 1004.5 hPa | 0.25 mm | - | - | - |
| 1778082177 | 12.22° C | 79% | 1004.6 hPa | 0.25 mm | - | - | - |
| 1778082117 | 12.22° C | 78% | 1004.6 hPa | 0.25 mm | - | - | - |
| 1778081872 | 13.33° C | 74% | 1004.7 hPa | 0 mm | - | - | - |
| 1778081752 | 13.89° C | 70% | 1004.6 hPa | 0 mm | - | - | - |
| 1778081693 | 14.44° C | 69% | 1004.5 hPa | 0 mm | - | - | - |
| 1778081573 | 15° C | 66% | 1004.7 hPa | 0 mm | - | - | - |
| 1778081513 | 15.56° C | 65% | 1004.5 hPa | 0 mm | - | - | - |
| 1778081453 | 15.56° C | 63% | 1004.3 hPa | 0 mm | - | - | - |
| 1778081027 | 17.22° C | 62% | 1003.3 hPa | 0 mm | - | - | - |
| 1778080967 | 17.22° C | 62% | 1003.2 hPa | 0 mm | - | - | - |
| 1778080723 | 17.78° C | 62% | 1003.2 hPa | 0 mm | - | - | - |
| 1778080299 | 17.78° C | 61% | 1002.8 hPa | 0 mm | - | - | - |
* Rain latest hour (hover to see other rain measurements)
** Current wind speed in m/s (hover to see current wind gust speed)